Time,TemperatureF,DewpointF,PressureIn,WindDirection,WindDirectionDegrees,WindSpeedMPH,WindSpeedGustMPH,Humidity,HourlyPrecipIn,Conditions,Clouds,dailyrainin,SoftwareType,DateUTC
2013-05-27 00:00:00,46.3,39.8,30.27,ENE,61,0.0,0.0,78,0.00,,,0.00,Wunderground v.1.15,2013-05-27 04:00:00,
2013-05-27 00:01:00,46.3,39.8,30.27,ENE,61,0.0,0.0,78,0.00,,,0.00,Wunderground v.1.15,2013-05-27 04:01:00,
2013-05-27 00:02:00,46.2,39.7,30.27,ENE,61,0.0,0.0,78,0.00,,,0.00,Wunderground v.1.15,2013-05-27 04:02:00,
2013-05-27 00:03:00,46.2,39.7,30.27,ENE,61,0.0,0.0,78,0.00,,,0.00,Wunderground v.1.15,2013-05-27 04:03:00,
2013-05-27 00:06:00,46.1,39.6,30.27,ENE,61,0.0,0.0,78,0.00,,,0.00,Wunderground v.1.15,2013-05-27 04:06:00,
2013-05-27 00:08:00,46.0,39.5,30.27,ENE,61,0.0,0.0,78,0.00,,,0.00,Wunderground v.1.15,2013-05-27 04:08:00,
2013-05-27 00:14:00,45.7,39.2,30.27,ENE,61,0.0,0.0,78,0.00,,,0.00,Wunderground v.1.15,2013-05-27 04:14:00,
2013-05-27 00:19:00,45.4,39.3,30.27,ENE,61,0.0,0.0,79,0.00,,,0.00,Wunderground v.1.15,2013-05-27 04:19:00,
2013-05-27 00:24:00,45.1,38.6,30.27,ENE,61,0.0,0.0,78,0.00,,,0.00,Wunderground v.1.15,2013-05-27 04:24:00,
2013-05-27 00:29:00,44.8,38.7,30.27,ENE,61,0.0,0.0,79,0.00,,,0.00,Wunderground v.1.15,2013-05-27 04:29:00,
2013-05-27 00:35:00,44.6,38.8,30.27,ENE,61,0.0,0.0,80,0.00,,,0.00,Wunderground v.1.15,2013-05-27 04:35:00,
2013-05-27 00:40:00,44.3,38.2,30.28,ENE,61,0.0,0.0,79,0.00,,,0.00,Wunderground v.1.15,2013-05-27 04:40:00,
2013-05-27 00:45:00,44.1,38.3,30.28,ENE,61,0.0,0.0,80,0.00,,,0.00,Wunderground v.1.15,2013-05-27 04:45:00,
2013-05-27 00:50:00,43.9,38.4,30.28,ENE,61,0.0,0.0,81,0.00,,,0.00,Wunderground v.1.15,2013-05-27 04:50:00,
2013-05-27 00:56:00,43.8,39.0,30.28,ENE,61,0.0,0.0,83,0.00,,,0.00,Wunderground v.1.15,2013-05-27 04:56:00,
2013-05-27 01:01:00,43.6,39.1,30.28,ENE,61,0.0,0.0,84,0.00,,,0.00,Wunderground v.1.15,2013-05-27 05:01:00,
2013-05-27 01:06:00,43.4,38.6,30.28,ENE,61,0.0,0.0,83,0.00,,,0.00,Wunderground v.1.15,2013-05-27 05:06:00,
2013-05-27 01:11:00,43.2,38.4,30.28,ENE,61,0.0,0.0,83,0.00,,,0.00,Wunderground v.1.15,2013-05-27 05:11:00,
2013-05-27 01:17:00,43.0,38.2,30.29,ENE,61,0.0,0.0,83,0.00,,,0.00,Wunderground v.1.15,2013-05-27 05:17:00,
2013-05-27 01:22:00,42.8,38.3,30.29,ENE,61,0.0,0.0,84,0.00,,,0.00,Wunderground v.1.15,2013-05-27 05:22:00,
2013-05-27 01:27:00,42.6,38.1,30.29,ENE,61,0.0,0.0,84,0.00,,,0.00,Wunderground v.1.15,2013-05-27 05:27:00,
2013-05-27 01:32:00,42.4,37.9,30.29,ENE,61,0.0,0.0,84,0.00,,,0.00,Wunderground v.1.15,2013-05-27 05:32:00,
2013-05-27 01:38:00,42.2,38.0,30.28,ENE,61,0.0,0.0,85,0.00,,,0.00,Wunderground v.1.15,2013-05-27 05:38:00,
2013-05-27 01:43:00,42.1,38.5,30.28,ENE,61,0.0,0.0,87,0.00,,,0.00,Wunderground v.1.15,2013-05-27 05:43:00,
2013-05-27 01:48:00,42.0,38.4,30.28,ENE,61,0.0,0.0,87,0.00,,,0.00,Wunderground v.1.15,2013-05-27 05:48:00,
2013-05-27 01:53:00,41.8,37.9,30.28,ENE,61,0.0,0.0,86,0.00,,,0.00,Wunderground v.1.15,2013-05-27 05:53:00,
2013-05-27 01:58:00,41.6,38.0,30.28,ENE,61,0.0,0.0,87,0.00,,,0.00,Wunderground v.1.15,2013-05-27 05:58:00,
2013-05-27 02:03:00,41.5,37.9,30.28,ENE,61,0.0,0.0,87,0.00,,,0.00,Wunderground v.1.15,2013-05-27 06:03:00,
2013-05-27 02:09:00,41.3,37.7,30.28,ENE,61,0.0,0.0,87,0.00,,,0.00,Wunderground v.1.15,2013-05-27 06:09:00,
2013-05-27 02:14:00,41.2,37.9,30.28,ENE,61,0.0,0.0,88,0.00,,,0.00,Wunderground v.1.15,2013-05-27 06:14:00,
2013-05-27 02:19:00,41.1,37.8,30.28,ENE,61,0.0,0.0,88,0.00,,,0.00,Wunderground v.1.15,2013-05-27 06:19:00,
2013-05-27 02:24:00,41.0,37.7,30.28,ENE,61,0.0,0.0,88,0.00,,,0.00,Wunderground v.1.15,2013-05-27 06:24:00,
2013-05-27 02:29:00,40.9,37.6,30.28,ENE,61,0.0,0.0,88,0.00,,,0.00,Wunderground v.1.15,2013-05-27 06:29:00,
2013-05-27 02:35:00,40.9,37.9,30.28,ENE,61,0.0,0.0,89,0.00,,,0.00,Wunderground v.1.15,2013-05-27 06:35:00,
2013-05-27 02:40:00,40.8,37.8,30.28,ENE,61,0.0,0.0,89,0.00,,,0.00,Wunderground v.1.15,2013-05-27 06:40:00,
2013-05-27 02:46:00,40.7,37.7,30.28,ENE,61,0.0,0.0,89,0.00,,,0.00,Wunderground v.1.15,2013-05-27 06:46:00,
2013-05-27 02:52:00,40.6,37.9,30.28,ENE,61,0.0,0.0,90,0.00,,,0.00,Wunderground v.1.15,2013-05-27 06:52:00,
2013-05-27 02:57:00,40.7,38.3,30.28,ENE,61,0.0,0.0,91,0.00,,,0.00,Wunderground v.1.15,2013-05-27 06:57:00,
2013-05-27 03:02:00,40.7,38.3,30.28,ENE,61,0.0,0.0,91,0.00,,,0.00,Wunderground v.1.15,2013-05-27 07:02:00,
2013-05-27 03:08:00,40.6,37.9,30.28,ENE,61,0.0,0.0,90,0.00,,,0.00,Wunderground v.1.15,2013-05-27 07:08:00,
2013-05-27 03:13:00,40.5,38.1,30.28,ENE,61,0.0,0.0,91,0.00,,,0.00,Wunderground v.1.15,2013-05-27 07:13:00,
2013-05-27 03:18:00,40.4,38.0,30.28,ENE,61,0.0,0.0,91,0.00,,,0.00,Wunderground v.1.15,2013-05-27 07:18:00,
2013-05-27 03:23:00,40.4,38.0,30.28,ENE,61,0.0,0.0,91,0.00,,,0.00,Wunderground v.1.15,2013-05-27 07:23:00,
2013-05-27 03:28:00,40.4,38.0,30.28,ENE,61,0.0,0.0,91,0.00,,,0.00,Wunderground v.1.15,2013-05-27 07:28:00,
2013-05-27 03:33:00,40.2,37.8,30.28,ENE,61,0.0,0.0,91,0.00,,,0.00,Wunderground v.1.15,2013-05-27 07:33:00,
2013-05-27 03:39:00,40.2,37.8,30.28,ENE,61,0.0,0.0,91,0.00,,,0.00,Wunderground v.1.15,2013-05-27 07:39:00,
2013-05-27 03:44:00,40.1,38.0,30.28,ENE,61,0.0,0.0,92,0.00,,,0.00,Wunderground v.1.15,2013-05-27 07:44:00,
2013-05-27 03:49:00,40.0,37.6,30.28,ENE,61,0.0,0.0,91,0.00,,,0.00,Wunderground v.1.15,2013-05-27 07:49:00,
2013-05-27 03:55:00,40.0,37.9,30.28,ENE,61,0.0,0.0,92,0.00,,,0.00,Wunderground v.1.15,2013-05-27 07:55:00,
2013-05-27 04:00:00,39.9,37.8,30.28,ENE,61,0.0,0.0,92,0.00,,,0.00,Wunderground v.1.15,2013-05-27 08:00:00,
2013-05-27 04:06:00,39.8,37.4,30.28,ENE,61,0.0,0.0,91,0.00,,,0.00,Wunderground v.1.15,2013-05-27 08:06:00,
2013-05-27 04:11:00,39.7,37.6,30.28,ENE,61,0.0,0.0,92,0.00,,,0.00,Wunderground v.1.15,2013-05-27 08:11:00,
2013-05-27 04:16:00,39.6,37.5,30.28,ENE,61,0.0,0.0,92,0.00,,,0.00,Wunderground v.1.15,2013-05-27 08:16:00,
2013-05-27 04:21:00,39.5,37.4,30.28,ENE,61,0.0,0.0,92,0.00,,,0.00,Wunderground v.1.15,2013-05-27 08:21:00,
2013-05-27 04:26:00,39.4,37.3,30.28,ENE,61,0.0,0.0,92,0.00,,,0.00,Wunderground v.1.15,2013-05-27 08:26:00,
2013-05-27 04:32:00,39.3,37.2,30.28,ENE,61,0.0,0.0,92,0.00,,,0.00,Wunderground v.1.15,2013-05-27 08:32:00,
2013-05-27 04:38:00,39.3,37.2,30.28,ENE,61,0.0,0.0,92,0.00,,,0.00,Wunderground v.1.15,2013-05-27 08:38:00,
2013-05-27 04:43:00,39.2,37.1,30.28,ENE,61,0.0,0.0,92,0.00,,,0.00,Wunderground v.1.15,2013-05-27 08:43:00,
2013-05-27 04:48:00,39.1,37.0,30.27,ENE,61,0.0,0.0,92,0.00,,,0.00,Wunderground v.1.15,2013-05-27 08:48:00,
2013-05-27 04:53:00,39.1,37.0,30.27,ENE,61,0.0,0.0,92,0.00,,,0.00,Wunderground v.1.15,2013-05-27 08:53:00,
2013-05-27 04:58:00,39.0,36.9,30.27,ENE,61,0.0,0.0,92,0.00,,,0.00,Wunderground v.1.15,2013-05-27 08:58:00,
2013-05-27 05:04:00,39.0,37.1,30.27,ENE,61,0.0,0.0,93,0.00,,,0.00,Wunderground v.1.15,2013-05-27 09:04:00,
2013-05-27 05:09:00,38.9,37.0,30.27,ENE,61,0.0,0.0,93,0.00,,,0.00,Wunderground v.1.15,2013-05-27 09:09:00,
2013-05-27 05:14:00,38.8,36.9,30.27,ENE,61,0.0,0.0,93,0.00,,,0.00,Wunderground v.1.15,2013-05-27 09:14:00,
2013-05-27 05:19:00,38.8,36.9,30.27,ENE,61,0.0,0.0,93,0.00,,,0.00,Wunderground v.1.15,2013-05-27 09:19:00,
2013-05-27 05:25:00,38.7,36.9,30.27,ENE,61,0.0,0.0,93,0.00,,,0.00,Wunderground v.1.15,2013-05-27 09:25:00,
2013-05-27 05:30:00,38.6,36.8,30.27,ENE,61,0.0,0.0,93,0.00,,,0.00,Wunderground v.1.15,2013-05-27 09:30:00,
2013-05-27 05:35:00,38.5,36.7,30.27,ENE,61,0.0,0.0,93,0.00,,,0.00,Wunderground v.1.15,2013-05-27 09:35:00,
2013-05-27 05:40:00,38.4,36.6,30.27,ENE,61,0.0,0.0,93,0.00,,,0.00,Wunderground v.1.15,2013-05-27 09:40:00,
2013-05-27 05:45:00,38.4,36.6,30.27,ENE,61,0.0,0.0,93,0.00,,,0.00,Wunderground v.1.15,2013-05-27 09:45:00,
2013-05-27 05:51:00,38.4,36.8,30.27,ENE,61,0.0,0.0,94,0.00,,,0.00,Wunderground v.1.15,2013-05-27 09:51:00,
2013-05-27 05:56:00,38.3,36.5,30.27,ENE,61,0.0,0.0,93,0.00,,,0.00,Wunderground v.1.15,2013-05-27 09:56:00,
2013-05-27 06:02:00,38.2,36.4,30.27,ENE,61,0.0,0.0,93,0.00,,,0.00,Wunderground v.1.15,2013-05-27 10:02:00,
2013-05-27 06:07:00,38.1,36.3,30.28,ENE,61,0.0,0.0,93,0.00,,,0.00,Wunderground v.1.15,2013-05-27 10:07:00,
2013-05-27 06:12:00,38.0,36.2,30.28,ENE,61,0.0,0.0,93,0.00,,,0.00,Wunderground v.1.15,2013-05-27 10:12:00,
2013-05-27 06:17:00,38.0,36.2,30.27,ENE,61,0.0,0.0,93,0.00,,,0.00,Wunderground v.1.15,2013-05-27 10:17:00,
2013-05-27 06:22:00,38.0,36.4,30.28,ENE,61,0.0,0.0,94,0.00,,,0.00,Wunderground v.1.15,2013-05-27 10:22:00,
2013-05-27 06:27:00,38.1,36.5,30.28,ENE,61,0.0,0.0,94,0.00,,,0.00,Wunderground v.1.15,2013-05-27 10:27:00,
2013-05-27 06:32:00,38.2,36.6,30.28,ENE,61,0.0,0.0,94,0.00,,,0.00,Wunderground v.1.15,2013-05-27 10:32:00,
2013-05-27 06:38:00,38.3,36.7,30.28,ENE,61,0.0,0.0,94,0.00,,,0.00,Wunderground v.1.15,2013-05-27 10:38:00,
2013-05-27 06:43:00,38.5,36.9,30.28,ENE,61,0.0,0.0,94,0.00,,,0.00,Wunderground v.1.15,2013-05-27 10:43:00,
2013-05-27 06:49:00,38.9,37.6,30.29,ENE,61,0.0,0.0,95,0.00,,,0.00,Wunderground v.1.15,2013-05-27 10:49:00,
2013-05-27 06:54:00,39.4,38.1,30.29,ENE,61,0.0,0.0,95,0.00,,,0.00,Wunderground v.1.15,2013-05-27 10:54:00,
2013-05-27 06:59:00,39.8,38.5,30.29,ENE,61,0.0,0.0,95,0.00,,,0.00,Wunderground v.1.15,2013-05-27 10:59:00,
2013-05-27 07:05:00,40.4,39.1,30.29,ENE,61,0.0,0.0,95,0.00,,,0.00,Wunderground v.1.15,2013-05-27 11:05:00,
2013-05-27 07:10:00,40.9,39.6,30.29,ENE,61,0.0,0.0,95,0.00,,,0.00,Wunderground v.1.15,2013-05-27 11:10:00,
2013-05-27 07:16:00,41.5,40.2,30.28,ENE,61,0.0,0.0,95,0.00,,,0.00,Wunderground v.1.15,2013-05-27 11:16:00,
2013-05-27 07:22:00,42.2,40.6,30.28,ENE,61,0.0,0.0,94,0.00,,,0.00,Wunderground v.1.15,2013-05-27 11:22:00,
2013-05-27 07:28:00,43.0,41.1,30.29,ENE,61,0.0,0.0,93,0.00,,,0.00,Wunderground v.1.15,2013-05-27 11:28:00,
2013-05-27 07:33:00,43.6,41.4,30.29,ENE,61,0.0,0.0,92,0.00,,,0.00,Wunderground v.1.15,2013-05-27 11:33:00,
2013-05-27 07:39:00,44.4,41.7,30.28,ENE,61,0.0,1.0,90,0.00,,,0.00,Wunderground v.1.15,2013-05-27 11:39:00,
2013-05-27 07:44:00,45.1,42.1,30.28,ENE,61,0.0,1.0,89,0.00,,,0.00,Wunderground v.1.15,2013-05-27 11:44:00,
2013-05-27 07:49:00,46.0,42.6,30.28,ENE,61,0.0,1.0,88,0.00,,,0.00,Wunderground v.1.15,2013-05-27 11:49:00,
2013-05-27 07:54:00,46.7,43.0,30.28,ENE,61,0.0,0.0,87,0.00,,,0.00,Wunderground v.1.15,2013-05-27 11:54:00,
2013-05-27 07:59:00,47.3,42.4,30.28,ENE,61,0.0,0.0,83,0.00,,,0.00,Wunderground v.1.15,2013-05-27 11:59:00,
2013-05-27 08:05:00,48.2,43.6,30.28,ENE,61,0.0,1.0,84,0.00,,,0.00,Wunderground v.1.15,2013-05-27 12:05:00,
2013-05-27 08:10:00,48.8,44.2,30.28,ENE,62,0.0,1.0,84,0.00,,,0.00,Wunderground v.1.15,2013-05-27 12:10:00,
2013-05-27 08:15:00,49.4,44.5,30.28,ENE,62,1.0,1.0,83,0.00,,,0.00,Wunderground v.1.15,2013-05-27 12:15:00,
2013-05-27 08:21:00,49.9,44.6,30.29,ENE,78,1.0,1.0,82,0.00,,,0.00,Wunderground v.1.15,2013-05-27 12:21:00,
2013-05-27 08:26:00,50.4,44.5,30.29,ENE,78,1.0,1.0,80,0.00,,,0.00,Wunderground v.1.15,2013-05-27 12:26:00,
2013-05-27 08:31:00,51.0,45.4,30.29,ENE,78,0.0,0.0,81,0.00,,,0.00,Wunderground v.1.15,2013-05-27 12:31:00,
2013-05-27 08:37:00,51.9,45.3,30.29,East,79,0.0,2.0,78,0.00,,,0.00,Wunderground v.1.15,2013-05-27 12:37:00,
2013-05-27 08:42:00,52.6,45.2,30.29,East,79,0.0,0.0,76,0.00,,,0.00,Wunderground v.1.15,2013-05-27 12:42:00,
2013-05-27 08:47:00,53.3,45.6,30.29,East,79,0.0,0.0,75,0.00,,,0.00,Wunderground v.1.15,2013-05-27 12:47:00,
2013-05-27 08:52:00,54.1,44.9,30.29,East,79,0.0,1.0,71,0.00,,,0.00,Wunderground v.1.15,2013-05-27 12:52:00,
2013-05-27 08:57:00,54.6,45.8,30.29,East,98,0.0,2.0,72,0.00,,,0.00,Wunderground v.1.15,2013-05-27 12:57:00,
2013-05-27 09:03:00,54.9,46.0,30.29,East,98,1.0,1.0,72,0.00,,,0.00,Wunderground v.1.15,2013-05-27 13:03:00,
2013-05-27 09:08:00,54.9,45.7,30.29,East,98,1.0,1.0,71,0.00,,,0.00,Wunderground v.1.15,2013-05-27 13:08:00,
2013-05-27 09:14:00,55.2,45.6,30.29,East,98,0.0,1.0,70,0.00,,,0.00,Wunderground v.1.15,2013-05-27 13:14:00,
2013-05-27 09:19:00,55.5,45.9,30.29,East,98,0.0,1.0,70,0.00,,,0.00,Wunderground v.1.15,2013-05-27 13:19:00,
2013-05-27 09:24:00,56.0,45.6,30.28,East,98,0.0,1.0,68,0.00,,,0.00,Wunderground v.1.15,2013-05-27 13:24:00,
2013-05-27 09:29:00,56.6,45.4,30.28,East,98,0.0,1.0,66,0.00,,,0.00,Wunderground v.1.15,2013-05-27 13:29:00,
2013-05-27 09:34:00,57.2,44.3,30.28,East,98,0.0,0.0,62,0.00,,,0.00,Wunderground v.1.15,2013-05-27 13:34:00,
2013-05-27 09:39:00,57.9,43.2,30.28,East,98,0.0,1.0,58,0.00,,,0.00,Wunderground v.1.15,2013-05-27 13:39:00,
2013-05-27 09:45:00,58.9,44.6,30.28,SE,133,1.0,3.0,59,0.00,,,0.00,Wunderground v.1.15,2013-05-27 13:45:00,
2013-05-27 09:50:00,59.3,44.5,30.28,SE,126,1.0,1.0,58,0.00,,,0.00,Wunderground v.1.15,2013-05-27 13:50:00,
2013-05-27 09:55:00,59.3,43.1,30.28,NE,55,0.0,1.0,55,0.00,,,0.00,Wunderground v.1.15,2013-05-27 13:55:00,
2013-05-27 10:00:00,59.7,44.0,30.28,SE,135,0.0,3.0,56,0.00,,,0.00,Wunderground v.1.15,2013-05-27 14:00:00,
2013-05-27 10:06:00,59.9,44.6,30.27,South,184,1.0,3.0,57,0.00,,,0.00,Wunderground v.1.15,2013-05-27 14:06:00,
2013-05-27 10:11:00,60.1,44.8,30.27,SE,129,1.0,3.0,57,0.00,,,0.00,Wunderground v.1.15,2013-05-27 14:11:00,
2013-05-27 10:16:00,60.1,42.4,30.27,East,96,1.0,3.0,52,0.00,,,0.00,Wunderground v.1.15,2013-05-27 14:16:00,
2013-05-27 10:22:00,60.0,43.3,30.28,South,186,1.0,3.0,54,0.00,,,0.00,Wunderground v.1.15,2013-05-27 14:22:00,
2013-05-27 10:27:00,59.8,43.6,30.28,SSW,192,1.0,3.0,55,0.00,,,0.00,Wunderground v.1.15,2013-05-27 14:27:00,
2013-05-27 10:32:00,60.2,44.9,30.27,SSW,192,1.0,1.0,57,0.00,,,0.00,Wunderground v.1.15,2013-05-27 14:32:00,
2013-05-27 10:38:00,60.5,43.3,30.27,South,182,0.0,1.0,53,0.00,,,0.00,Wunderground v.1.15,2013-05-27 14:38:00,
2013-05-27 10:43:00,60.6,43.9,30.27,SE,144,1.0,1.0,54,0.00,,,0.00,Wunderground v.1.15,2013-05-27 14:43:00,
2013-05-27 10:48:00,60.7,43.9,30.27,SE,127,0.0,1.0,54,0.00,,,0.00,Wunderground v.1.15,2013-05-27 14:48:00,
2013-05-27 10:53:00,60.8,44.0,30.27,ESE,119,0.0,1.0,54,0.00,,,0.00,Wunderground v.1.15,2013-05-27 14:53:00,
2013-05-27 10:58:00,60.8,43.6,30.28,ESE,119,1.0,2.0,53,0.00,,,0.00,Wunderground v.1.15,2013-05-27 14:58:00,
2013-05-27 11:04:00,61.0,45.2,30.28,ESE,119,0.0,1.0,56,0.00,,,0.00,Wunderground v.1.15,2013-05-27 15:04:00,
2013-05-27 11:09:00,61.2,43.4,30.28,ESE,119,0.0,1.0,52,0.00,,,0.00,Wunderground v.1.15,2013-05-27 15:09:00,
2013-05-27 11:14:00,61.3,44.0,30.27,ESE,119,0.0,0.0,53,0.00,,,0.00,Wunderground v.1.15,2013-05-27 15:14:00,
2013-05-27 11:20:00,61.6,45.7,30.27,ESE,119,0.0,0.0,56,0.00,,,0.00,Wunderground v.1.15,2013-05-27 15:20:00,
2013-05-27 11:25:00,61.8,43.0,30.27,ESE,119,0.0,1.0,50,0.00,,,0.00,Wunderground v.1.15,2013-05-27 15:25:00,
2013-05-27 11:30:00,62.0,44.7,30.27,SE,134,0.0,0.0,53,0.00,,,0.00,Wunderground v.1.15,2013-05-27 15:30:00,
2013-05-27 11:36:00,62.1,44.3,30.27,SE,131,0.0,1.0,52,0.00,,,0.00,Wunderground v.1.15,2013-05-27 15:36:00,
2013-05-27 11:41:00,62.2,43.8,30.27,SE,131,0.0,1.0,51,0.00,,,0.00,Wunderground v.1.15,2013-05-27 15:41:00,
2013-05-27 11:46:00,62.3,46.4,30.27,SE,131,0.0,1.0,56,0.00,,,0.00,Wunderground v.1.15,2013-05-27 15:46:00,
2013-05-27 11:52:00,62.5,45.1,30.27,SE,131,0.0,1.0,53,0.00,,,0.00,Wunderground v.1.15,2013-05-27 15:52:00,
2013-05-27 11:57:00,62.5,44.1,30.27,SE,131,0.0,1.0,51,0.00,,,0.00,Wunderground v.1.15,2013-05-27 15:57:00,
2013-05-27 12:02:00,62.4,46.5,30.27,SE,132,0.0,0.0,56,0.00,,,0.00,Wunderground v.1.15,2013-05-27 16:02:00,
2013-05-27 12:08:00,62.0,47.5,30.27,SE,132,0.0,0.0,59,0.00,,,0.00,Wunderground v.1.15,2013-05-27 16:08:00,
2013-05-27 12:13:00,61.8,48.6,30.27,SE,132,0.0,0.0,62,0.00,,,0.00,Wunderground v.1.15,2013-05-27 16:13:00,
2013-05-27 12:18:00,61.6,45.3,30.26,SE,132,0.0,1.0,55,0.00,,,0.00,Wunderground v.1.15,2013-05-27 16:18:00,
2013-05-27 12:23:00,61.4,45.1,30.26,SE,132,0.0,1.0,55,0.00,,,0.00,Wunderground v.1.15,2013-05-27 16:23:00,
2013-05-27 12:28:00,61.4,46.0,30.26,SE,132,0.0,2.0,57,0.00,,,0.00,Wunderground v.1.15,2013-05-27 16:28:00,
2013-05-27 12:34:00,61.3,43.0,30.26,SE,132,0.0,0.0,51,0.00,,,0.00,Wunderground v.1.15,2013-05-27 16:34:00,
2013-05-27 12:39:00,61.4,47.4,30.26,SE,132,0.0,0.0,60,0.00,,,0.00,Wunderground v.1.15,2013-05-27 16:39:00,
2013-05-27 12:44:00,61.4,42.6,30.27,SE,132,0.0,1.0,50,0.00,,,0.00,Wunderground v.1.15,2013-05-27 16:44:00,
2013-05-27 12:50:00,61.4,44.1,30.26,SE,132,0.0,0.0,53,0.00,,,0.00,Wunderground v.1.15,2013-05-27 16:50:00,
2013-05-27 12:55:00,61.5,44.2,30.26,SE,132,0.0,0.0,53,0.00,,,0.00,Wunderground v.1.15,2013-05-27 16:55:00,
2013-05-27 13:00:00,61.6,43.8,30.26,SE,132,0.0,0.0,52,0.00,,,0.00,Wunderground v.1.15,2013-05-27 17:00:00,
2013-05-27 13:06:00,61.7,43.4,30.26,SE,132,0.0,0.0,51,0.00,,,0.00,Wunderground v.1.15,2013-05-27 17:06:00,
2013-05-27 13:11:00,61.6,43.3,30.26,SE,132,0.0,0.0,51,0.00,,,0.00,Wunderground v.1.15,2013-05-27 17:11:00,
2013-05-27 13:16:00,61.7,45.8,30.26,SE,132,0.0,0.0,56,0.00,,,0.00,Wunderground v.1.15,2013-05-27 17:16:00,
2013-05-27 13:22:00,61.5,47.5,30.26,SE,132,0.0,0.0,60,0.00,,,0.00,Wunderground v.1.15,2013-05-27 17:22:00,
2013-05-27 13:27:00,61.2,43.9,30.26,SE,132,0.0,0.0,53,0.00,,,0.00,Wunderground v.1.15,2013-05-27 17:27:00,
2013-05-27 13:32:00,61.2,46.3,30.26,SE,132,0.0,0.0,58,0.00,,,0.00,Wunderground v.1.15,2013-05-27 17:32:00,
2013-05-27 13:38:00,61.3,45.9,30.26,SE,132,0.0,0.0,57,0.00,,,0.00,Wunderground v.1.15,2013-05-27 17:38:00,
2013-05-27 13:43:00,61.4,44.1,30.25,SE,132,0.0,0.0,53,0.00,,,0.00,Wunderground v.1.15,2013-05-27 17:43:00,
2013-05-27 13:48:00,61.6,48.4,30.25,SE,132,0.0,0.0,62,0.00,,,0.00,Wunderground v.1.15,2013-05-27 17:48:00,
2013-05-27 13:53:00,61.7,47.2,30.25,SE,132,0.0,0.0,59,0.00,,,0.00,Wunderground v.1.15,2013-05-27 17:53:00,
2013-05-27 13:59:00,61.9,45.1,30.25,SE,132,0.0,1.0,54,0.00,,,0.00,Wunderground v.1.15,2013-05-27 17:59:00,
2013-05-27 14:04:00,62.1,45.2,30.25,SE,132,0.0,0.0,54,0.00,,,0.00,Wunderground v.1.15,2013-05-27 18:04:00,
2013-05-27 14:09:00,62.4,44.5,30.24,SE,137,0.0,2.0,52,0.00,,,0.00,Wunderground v.1.15,2013-05-27 18:09:00,
2013-05-27 14:15:00,62.7,44.3,30.24,ESE,117,0.0,3.0,51,0.00,,,0.00,Wunderground v.1.15,2013-05-27 18:15:00,
2013-05-27 14:20:00,62.9,47.4,30.24,ESE,111,0.0,1.0,57,0.00,,,0.00,Wunderground v.1.15,2013-05-27 18:20:00,
2013-05-27 14:25:00,62.9,47.0,30.24,ESE,112,0.0,1.0,56,0.00,,,0.00,Wunderground v.1.15,2013-05-27 18:25:00,
2013-05-27 14:31:00,62.8,46.4,30.24,ESE,111,0.0,0.0,55,0.00,,,0.00,Wunderground v.1.15,2013-05-27 18:31:00,
2013-05-27 14:36:00,62.8,47.3,30.24,ESE,111,0.0,0.0,57,0.00,,,0.00,Wunderground v.1.15,2013-05-27 18:36:00,
2013-05-27 14:42:00,62.5,47.1,30.23,ESE,111,0.0,0.0,57,0.00,,,0.00,Wunderground v.1.15,2013-05-27 18:42:00,
2013-05-27 14:47:00,62.3,48.7,30.23,ESE,111,0.0,1.0,61,0.00,,,0.00,Wunderground v.1.15,2013-05-27 18:47:00,
2013-05-27 14:52:00,62.3,50.8,30.23,ESE,115,0.0,1.0,66,0.00,,,0.00,Wunderground v.1.15,2013-05-27 18:52:00,
2013-05-27 14:57:00,62.2,47.2,30.23,ESE,113,0.0,1.0,58,0.00,,,0.00,Wunderground v.1.15,2013-05-27 18:57:00,
2013-05-27 15:02:00,62.3,50.8,30.22,ESE,113,0.0,0.0,66,0.00,,,0.00,Wunderground v.1.15,2013-05-27 19:02:00,
2013-05-27 15:08:00,62.3,46.9,30.22,ESE,113,0.0,0.0,57,0.00,,,0.00,Wunderground v.1.15,2013-05-27 19:08:00,
2013-05-27 15:13:00,62.3,46.9,30.22,ESE,113,0.0,0.0,57,0.00,,,0.00,Wunderground v.1.15,2013-05-27 19:13:00,
2013-05-27 15:18:00,62.2,51.1,30.22,ESE,113,0.0,0.0,67,0.00,,,0.00,Wunderground v.1.15,2013-05-27 19:18:00,
2013-05-27 15:23:00,62.1,48.0,30.22,ESE,112,0.0,1.0,60,0.00,,,0.00,Wunderground v.1.15,2013-05-27 19:23:00,
2013-05-27 15:28:00,62.0,47.5,30.22,ESE,119,0.0,1.0,59,0.00,,,0.00,Wunderground v.1.15,2013-05-27 19:28:00,
2013-05-27 15:33:00,61.9,48.3,30.22,ESE,119,0.0,0.0,61,0.00,,,0.00,Wunderground v.1.15,2013-05-27 19:33:00,
2013-05-27 15:39:00,61.8,46.4,30.23,ESE,119,0.0,1.0,57,0.00,,,0.00,Wunderground v.1.15,2013-05-27 19:39:00,
2013-05-27 15:44:00,61.6,48.0,30.22,ESE,119,0.0,0.0,61,0.00,,,0.00,Wunderground v.1.15,2013-05-27 19:44:00,
2013-05-27 15:49:00,61.6,49.3,30.22,ESE,119,0.0,0.0,64,0.00,,,0.00,Wunderground v.1.15,2013-05-27 19:49:00,
2013-05-27 15:55:00,61.4,48.7,30.22,East,84,0.0,2.0,63,0.00,,,0.00,Wunderground v.1.15,2013-05-27 19:55:00,
2013-05-27 16:00:00,61.3,51.4,30.21,East,84,0.0,0.0,70,0.00,,,0.00,Wunderground v.1.15,2013-05-27 20:00:00,
2013-05-27 16:06:00,61.1,49.7,30.21,East,85,0.0,0.0,66,0.00,,,0.00,Wunderground v.1.15,2013-05-27 20:06:00,
2013-05-27 16:11:00,61.2,48.5,30.21,East,85,0.0,0.0,63,0.00,,,0.00,Wunderground v.1.15,2013-05-27 20:11:00,
2013-05-27 16:16:00,61.6,48.4,30.21,South,188,0.0,3.0,62,0.00,,,0.00,Wunderground v.1.15,2013-05-27 20:16:00,
2013-05-27 16:22:00,61.7,47.2,30.20,SE,131,1.0,2.0,59,0.00,,,0.00,Wunderground v.1.15,2013-05-27 20:22:00,
2013-05-27 16:27:00,61.8,47.3,30.20,ENE,67,1.0,2.0,59,0.00,,,0.00,Wunderground v.1.15,2013-05-27 20:27:00,
2013-05-27 16:32:00,61.8,46.9,30.20,South,180,1.0,1.0,58,0.00,,,0.00,Wunderground v.1.15,2013-05-27 20:32:00,
2013-05-27 16:38:00,62.0,46.6,30.20,South,180,1.0,1.0,57,0.00,,,0.00,Wunderground v.1.15,2013-05-27 20:38:00,
2013-05-27 16:43:00,62.2,47.2,30.19,ESE,120,0.0,0.0,58,0.00,,,0.00,Wunderground v.1.15,2013-05-27 20:43:00,
2013-05-27 16:48:00,62.2,46.8,30.19,ESE,122,0.0,2.0,57,0.00,,,0.00,Wunderground v.1.15,2013-05-27 20:48:00,
2013-05-27 16:54:00,62.0,47.0,30.19,ENE,76,1.0,2.0,58,0.00,,,0.00,Wunderground v.1.15,2013-05-27 20:54:00,
2013-05-27 16:59:00,61.9,47.4,30.19,SE,130,1.0,2.0,59,0.00,,,0.00,Wunderground v.1.15,2013-05-27 20:59:00,
2013-05-27 17:04:00,61.9,47.9,30.19,SE,130,0.0,0.0,60,0.00,,,0.00,Wunderground v.1.15,2013-05-27 21:04:00,
2013-05-27 17:09:00,61.9,45.5,30.19,SE,130,0.0,1.0,55,0.00,,,0.00,Wunderground v.1.15,2013-05-27 21:09:00,
2013-05-27 17:15:00,61.8,46.4,30.19,SE,130,0.0,0.0,57,0.00,,,0.00,Wunderground v.1.15,2013-05-27 21:15:00,
2013-05-27 17:20:00,61.8,45.9,30.19,SE,129,0.0,0.0,56,0.00,,,0.00,Wunderground v.1.15,2013-05-27 21:20:00,
2013-05-27 17:25:00,61.6,44.8,30.19,SSE,160,1.0,1.0,54,0.00,,,0.00,Wunderground v.1.15,2013-05-27 21:25:00,
2013-05-27 17:30:00,61.4,45.6,30.19,SSE,160,1.0,1.0,56,0.00,,,0.00,Wunderground v.1.15,2013-05-27 21:30:00,
2013-05-27 17:35:00,61.4,45.6,30.19,SSE,160,0.0,1.0,56,0.00,,,0.00,Wunderground v.1.15,2013-05-27 21:35:00,
2013-05-27 17:40:00,61.4,46.5,30.19,SSE,160,0.0,0.0,58,0.00,,,0.00,Wunderground v.1.15,2013-05-27 21:40:00,
2013-05-27 17:46:00,61.3,48.2,30.19,SSE,160,0.0,0.0,62,0.00,,,0.00,Wunderground v.1.15,2013-05-27 21:46:00,
2013-05-27 17:52:00,60.7,48.4,30.20,SSE,160,0.0,0.0,64,0.00,,,0.00,Wunderground v.1.15,2013-05-27 21:52:00,
2013-05-27 17:57:00,60.2,49.2,30.20,SSE,160,0.0,0.0,67,0.00,,,0.00,Wunderground v.1.15,2013-05-27 21:57:00,
2013-05-27 18:02:00,59.8,48.8,30.19,SSE,160,0.0,0.0,67,0.00,,,0.00,Wunderground v.1.15,2013-05-27 22:02:00,
2013-05-27 18:07:00,59.6,50.2,30.20,SSE,160,0.0,0.0,71,0.00,,,0.00,Wunderground v.1.15,2013-05-27 22:07:00,
2013-05-27 18:13:00,59.3,51.4,30.19,SSE,160,0.0,0.0,75,0.00,,,0.00,Wunderground v.1.15,2013-05-27 22:13:00,
2013-05-27 18:18:00,59.2,50.5,30.19,SSE,160,0.0,0.0,73,0.00,,,0.00,Wunderground v.1.15,2013-05-27 22:18:00,
2013-05-27 18:23:00,59.1,51.2,30.19,SSE,160,0.0,0.0,75,0.00,,,0.00,Wunderground v.1.15,2013-05-27 22:23:00,
2013-05-27 18:28:00,59.0,49.6,30.19,SSE,160,0.0,0.0,71,0.00,,,0.00,Wunderground v.1.15,2013-05-27 22:28:00,
2013-05-27 18:34:00,59.0,49.6,30.18,SSE,160,0.0,0.0,71,0.00,,,0.00,Wunderground v.1.15,2013-05-27 22:34:00,
2013-05-27 18:39:00,59.3,47.9,30.17,SSE,160,0.0,3.0,66,0.00,,,0.00,Wunderground v.1.15,2013-05-27 22:39:00,
2013-05-27 18:44:00,59.6,47.0,30.15,South,183,1.0,3.0,63,0.00,,,0.00,Wunderground v.1.15,2013-05-27 22:44:00,
2013-05-27 18:50:00,59.7,47.1,30.16,North,360,1.0,1.0,63,0.00,,,0.00,Wunderground v.1.15,2013-05-27 22:50:00,
2013-05-27 18:55:00,59.8,47.2,30.15,North,360,0.0,1.0,63,0.00,,,0.00,Wunderground v.1.15,2013-05-27 22:55:00,
2013-05-27 19:00:00,59.9,46.8,30.17,North,355,0.0,0.0,62,0.00,,,0.00,Wunderground v.1.15,2013-05-27 23:00:00,
2013-05-27 19:06:00,59.8,48.0,30.17,North,355,0.0,0.0,65,0.00,,,0.00,Wunderground v.1.15,2013-05-27 23:06:00,
2013-05-27 19:11:00,59.6,49.0,30.17,North,355,0.0,0.0,68,0.00,,,0.00,Wunderground v.1.15,2013-05-27 23:11:00,
2013-05-27 19:16:00,59.4,49.2,30.17,North,355,0.0,0.0,69,0.00,,,0.00,Wunderground v.1.15,2013-05-27 23:16:00,
2013-05-27 19:21:00,59.3,48.7,30.16,North,360,0.0,0.0,68,0.00,,,0.00,Wunderground v.1.15,2013-05-27 23:21:00,
2013-05-27 19:27:00,59.4,48.0,30.16,SSW,203,0.0,0.0,66,0.00,,,0.00,Wunderground v.1.15,2013-05-27 23:27:00,
2013-05-27 19:32:00,59.5,48.5,30.16,NNE,22,0.0,0.0,67,0.00,,,0.00,Wunderground v.1.15,2013-05-27 23:32:00,
2013-05-27 19:37:00,59.6,49.8,30.17,NNE,22,0.0,0.0,70,0.00,,,0.00,Wunderground v.1.15,2013-05-27 23:37:00,
2013-05-27 19:42:00,59.5,48.5,30.16,NNE,22,0.0,0.0,67,0.00,,,0.00,Wunderground v.1.15,2013-05-27 23:42:00,
2013-05-27 19:47:00,59.6,48.6,30.17,NNE,22,0.0,0.0,67,0.00,,,0.00,Wunderground v.1.15,2013-05-27 23:47:00,
2013-05-27 19:52:00,59.5,48.9,30.17,NNE,22,0.0,0.0,68,0.00,,,0.00,Wunderground v.1.15,2013-05-27 23:52:00,
2013-05-27 19:57:00,59.5,49.3,30.16,NNE,23,0.0,0.0,69,0.00,,,0.00,Wunderground v.1.15,2013-05-27 23:57:00,
2013-05-27 20:03:00,59.4,49.2,30.16,NNE,23,0.0,0.0,69,0.00,,,0.00,Wunderground v.1.15,2013-05-28 00:03:00,
2013-05-27 20:08:00,59.3,50.3,30.16,NNE,23,0.0,0.0,72,0.00,,,0.00,Wunderground v.1.15,2013-05-28 00:08:00,
2013-05-27 20:14:00,59.0,49.6,30.16,NNE,23,0.0,0.0,71,0.00,,,0.00,Wunderground v.1.15,2013-05-28 00:14:00,
2013-05-27 20:19:00,58.7,49.3,30.16,NNE,23,0.0,0.0,71,0.00,,,0.00,Wunderground v.1.15,2013-05-28 00:19:00,
2013-05-27 20:24:00,58.5,49.9,30.17,NNE,23,0.0,0.0,73,0.00,,,0.00,Wunderground v.1.15,2013-05-28 00:24:00,
2013-05-27 20:29:00,58.3,49.3,30.16,NNE,23,0.0,1.0,72,0.00,,,0.00,Wunderground v.1.15,2013-05-28 00:29:00,
2013-05-27 20:35:00,58.3,50.4,30.16,NNE,23,0.0,0.0,75,0.00,,,0.00,Wunderground v.1.15,2013-05-28 00:35:00,
2013-05-27 20:40:00,58.2,49.2,30.15,NNE,23,0.0,0.0,72,0.00,,,0.00,Wunderground v.1.15,2013-05-28 00:40:00,
2013-05-27 20:45:00,58.1,48.7,30.15,SW,215,0.0,1.0,71,0.00,,,0.00,Wunderground v.1.15,2013-05-28 00:45:00,
2013-05-27 20:50:00,58.1,48.4,30.14,East,79,0.0,0.0,70,0.00,,,0.00,Wunderground v.1.15,2013-05-28 00:50:00,
2013-05-27 20:55:00,58.1,48.7,30.15,ENE,76,0.0,0.0,71,0.00,,,0.00,Wunderground v.1.15,2013-05-28 00:55:00,
2013-05-27 21:00:00,58.0,47.9,30.15,NE,44,0.0,0.0,69,0.00,,,0.00,Wunderground v.1.15,2013-05-28 01:00:00,
2013-05-27 21:06:00,57.9,48.2,30.15,East,94,0.0,2.0,70,0.00,,,0.00,Wunderground v.1.15,2013-05-28 01:06:00,
2013-05-27 21:11:00,57.8,48.1,30.14,East,94,0.0,0.0,70,0.00,,,0.00,Wunderground v.1.15,2013-05-28 01:11:00,
2013-05-27 21:16:00,57.8,48.1,30.14,South,176,0.0,2.0,70,0.00,,,0.00,Wunderground v.1.15,2013-05-28 01:16:00,
2013-05-27 21:21:00,57.8,47.7,30.14,North,351,0.0,0.0,69,0.00,,,0.00,Wunderground v.1.15,2013-05-28 01:21:00,
2013-05-27 21:27:00,57.8,47.7,30.14,NNE,18,0.0,2.0,69,0.00,,,0.00,Wunderground v.1.15,2013-05-28 01:27:00,
2013-05-27 21:32:00,57.8,47.7,30.14,South,177,0.0,0.0,69,0.00,,,0.00,Wunderground v.1.15,2013-05-28 01:32:00,
2013-05-27 21:37:00,57.7,47.6,30.13,NE,34,0.0,1.0,69,0.00,,,0.00,Wunderground v.1.15,2013-05-28 01:37:00,
2013-05-27 21:43:00,57.7,47.6,30.14,SE,131,0.0,2.0,69,0.00,,,0.00,Wunderground v.1.15,2013-05-28 01:43:00,
2013-05-27 21:48:00,57.7,47.6,30.13,SSE,153,0.0,2.0,69,0.00,,,0.00,Wunderground v.1.15,2013-05-28 01:48:00,
2013-05-27 21:53:00,57.7,48.7,30.14,SSE,153,0.0,0.0,72,0.00,,,0.00,Wunderground v.1.15,2013-05-28 01:53:00,
2013-05-27 21:59:00,57.5,47.8,30.14,South,182,0.0,0.0,70,0.00,,,0.00,Wunderground v.1.15,2013-05-28 01:59:00,
2013-05-27 22:05:00,57.6,47.5,30.14,SSW,205,0.0,3.0,69,0.00,,,0.00,Wunderground v.1.15,2013-05-28 02:05:00,
2013-05-27 22:10:00,57.6,48.6,30.14,SSW,205,0.0,0.0,72,0.00,,,0.00,Wunderground v.1.15,2013-05-28 02:10:00,
2013-05-27 22:15:00,57.5,48.5,30.14,SSW,205,0.0,0.0,72,0.00,,,0.00,Wunderground v.1.15,2013-05-28 02:15:00,
2013-05-27 22:21:00,57.4,48.4,30.14,SSW,205,0.0,0.0,72,0.00,,,0.00,Wunderground v.1.15,2013-05-28 02:21:00,
2013-05-27 22:27:00,57.4,48.1,30.14,SSW,205,0.0,0.0,71,0.00,,,0.00,Wunderground v.1.15,2013-05-28 02:27:00,
2013-05-27 22:32:00,57.3,49.1,30.14,SSW,205,0.0,0.0,74,0.00,,,0.00,Wunderground v.1.15,2013-05-28 02:32:00,
2013-05-27 22:37:00,57.1,47.8,30.14,SSW,205,0.0,0.0,71,0.00,,,0.00,Wunderground v.1.15,2013-05-28 02:37:00,
2013-05-27 22:42:00,57.0,47.7,30.14,SSW,205,0.0,0.0,71,0.00,,,0.00,Wunderground v.1.15,2013-05-28 02:42:00,
2013-05-27 22:47:00,57.0,48.1,30.14,SSW,205,0.0,0.0,72,0.00,,,0.00,Wunderground v.1.15,2013-05-28 02:47:00,
2013-05-27 22:52:00,57.1,48.2,30.14,SSW,205,0.0,0.0,72,0.00,,,0.00,Wunderground v.1.15,2013-05-28 02:52:00,
2013-05-27 22:58:00,57.1,48.5,30.14,SSW,205,0.0,0.0,73,0.00,,,0.00,Wunderground v.1.15,2013-05-28 02:58:00,
2013-05-27 23:03:00,57.1,48.2,30.13,SSW,205,0.0,0.0,72,0.00,,,0.00,Wunderground v.1.15,2013-05-28 03:03:00,
2013-05-27 23:09:00,57.1,48.9,30.13,SSW,205,0.0,0.0,74,0.00,,,0.00,Wunderground v.1.15,2013-05-28 03:09:00,
2013-05-27 23:15:00,57.2,47.9,30.12,South,174,1.0,3.0,71,0.00,,,0.00,Wunderground v.1.15,2013-05-28 03:15:00,
2013-05-27 23:20:00,57.3,48.3,30.13,North,360,1.0,1.0,72,0.00,,,0.00,Wunderground v.1.15,2013-05-28 03:20:00,
2013-05-27 23:25:00,57.3,48.3,30.12,SE,124,0.0,1.0,72,0.00,,,0.00,Wunderground v.1.15,2013-05-28 03:25:00,
2013-05-27 23:30:00,57.4,48.1,30.12,East,90,0.0,0.0,71,0.00,,,0.00,Wunderground v.1.15,2013-05-28 03:30:00,
2013-05-27 23:35:00,57.4,48.4,30.12,East,90,0.0,1.0,72,0.00,,,0.00,Wunderground v.1.15,2013-05-28 03:35:00,
2013-05-27 23:41:00,57.5,48.2,30.11,North,349,0.0,2.0,71,0.00,,,0.00,Wunderground v.1.15,2013-05-28 03:41:00,
2013-05-27 23:46:00,57.7,48.0,30.11,East,79,1.0,2.0,70,0.00,,,0.00,Wunderground v.1.15,2013-05-28 03:46:00,
2013-05-27 23:52:00,57.9,48.2,30.11,North,5,0.0,1.0,70,0.00,,,0.00,Wunderground v.1.15,2013-05-28 03:52:00,
2013-05-27 23:58:00,58.0,49.4,30.11,North,5,0.0,1.0,73,0.00,,,0.00,Wunderground v.1.15,2013-05-28 03:58:00,